Weather in Kosinskoye

Russia / Vladimir Oblast     56°30′38″N   39°34′16″E
temp.,
°C
wind,
m/s
gust,
m/s
humid.,
%
clouds,
%
prec.,
mm/h
press.,
hPa
HPBL,
m
22 october, fri
fri2200:00+10ssw71486100 0.0 993540
03:00+10ssw81783100 0.0 991678
06:00+9sw9178189 0.0 991776
09:00+10sw9158094 0.0 9911227
12:00+11wsw8147088 0.1 9931324
15:00+10wsw11196892 0.4 9941697
18:00+7wsw8157329 0.1 9971154
21:00+6wsw8147367 0.1 1000978
23 october, sat
sat2300:00+6wsw7147497 0.0 1000970
03:00+6wsw71272100 0.0 10011156
06:00+5sw61381100 0.0 1001736
09:00+5sw7127755 0.0 1002784
12:00+7sw71168100 0.0 10031217
15:00+6sw6117066 0.0 10031209
18:00+5sw6127861 0.1 1004673
21:00+4wsw5118399 0.1 1005620
24 october, sun
sun2400:00+4wsw6128395 0.0 1005617
03:00+3wsw61080100 0.0 1006742
06:00+3wsw6985100 0.1 1005982
09:00+2w51096100 0.4 1007692
12:00+2wnw598694 0.3 1009772
15:00+1wnw61096100 0.4 1011542
18:00+1nw71396100 0.4 1013721
21:00+1nnw8138297 0.8 1016930
25 october, mon
mon2500:000nnw81276100 0.0 1019975
03:00−1nnw712839 0.1 1022850
06:00−2nnw6129018 0.0 1024552
09:00−1nnw5108620 0.0 1027535
12:00+2nw56645 0.0 1028825
15:00+2wnw466395 0.0 1028682
18:00−1wsw3876100 0.0 1028235
21:000wsw51172100 0.0 1028358
26 october, tue
tue2600:00+1sw51268100 0.0 1026375
03:000sw6147375 0.0 1025423
06:00−1sw6147795 0.0 1024401
09:000wsw61474100 0.0 1023451
12:00+3wsw71364100 0.0 1022560
15:00+4sw71364100 0.0 1019604
18:00+2sw61568100 0.0 1018472
21:00+1sw61471100 0.0 1017461